Salem, OR

4:40 PM PDT on September 26, 2016 (GMT -0700)
McNary

Weather History for KSLE - May, 2012

Change the Weather History Date:

Monday, May 7, 2012

  Actual Average Record
Temperature  
Mean Temperature 60 °F 54 °F  
Max Temperature 78 °F 66 °F 94 °F (1987)
Min Temperature 41 °F 43 °F 30 °F (1984)
Degree Days  
Heating Degree Days 5 11  
Month to date heating degree days 99 80  
Since 1 July heating degree days 4224 4323  
Cooling Degree Days 0 0  
Month to date cooling degree days 0 0  
Year to date cooling degree days 2 0  
Growing Degree Days 10 (Base 50)    
Moisture  
Dew Point 42 °F    
Average Humidity 58    
Maximum Humidity 89    
Minimum Humidity 27    
Precipitation  
Precipitation 0.00 in 0.07 in 0.89 in (1991)
Month to date precipitation 0.86 0.51  
Year to date precipitation 28.38 17.83  
Sea Level Pressure  
Sea Level Pressure 30.19 in    
Wind  
Wind Speed 3 mph (NNW)    
Max Wind Speed 8 mph    
Max Gust Speed 13 mph    
Visibility 10 miles    
Events      
T = Trace of Precipitation, MM = Missing Value Source: NWS Daily Summary

Daily Weather History Graph

Daily Weather History Graph

Search for Another Location

Airport or City:

Trip Planner

Search our weather history database for the weather conditions in past years. The results will help you decide how hot, cold, wet, or windy it might be!

Date:

Astronomy

May. 07, 2012 Rise Set
Actual Time 5:52 AM PDT 8:25 PM PDT
Civil Twilight 5:19 AM PDT 8:58 PM PDT
Nautical Twilight 4:37 AM PDT 9:40 PM PDT
Astronomical Twilight 3:50 AM PDT 10:28 PM PDT
Moon 10:47 PM PDT (5/7) 6:59 AM PDT (5/7)
Length of Visible Light 15h 39m
Length of Day
14h 33m
Waning Gibbous, 96% of the Moon is Illuminated
May 7
Waning Gibbous
May 12
Last Quarter
May 20
New
May 28
First Quarter
Jun 4
Full

Hourly Weather History & Observations

Time (PDT) Temp. Dew Point Humidity Pressure Visibility Wind Dir Wind Speed Gust Speed Precip Events Conditions
12:56 AM 52.0 °F 42.1 °F 69% 30.30 in 10.0 mi NW 3.5 mph - N/A   Clear
1:56 AM 50.0 °F 41.0 °F 71% 30.29 in 10.0 mi Calm Calm - N/A   Clear
2:56 AM 45.0 °F 41.0 °F 86% 30.28 in 10.0 mi Calm Calm - N/A   Clear
3:56 AM 44.1 °F 39.9 °F 85% 30.28 in 10.0 mi Calm Calm - N/A   Clear
4:56 AM 43.0 °F 39.9 °F 89% 30.27 in 10.0 mi Calm Calm - N/A   Clear
5:56 AM 41.0 °F 37.9 °F 89% 30.26 in 10.0 mi Calm Calm - N/A   Clear
6:56 AM 45.0 °F 41.0 °F 86% 30.26 in 10.0 mi Calm Calm - N/A   Clear
7:56 AM 53.1 °F 44.1 °F 71% 30.26 in 10.0 mi Calm Calm - N/A   Clear
8:56 AM 55.0 °F 42.1 °F 62% 30.25 in 10.0 mi North 8.1 mph - N/A   Clear
9:56 AM 59.0 °F 42.1 °F 53% 30.24 in 10.0 mi Calm Calm - N/A   Clear
10:56 AM 63.0 °F 44.1 °F 50% 30.22 in 10.0 mi North 4.6 mph - N/A   Clear
11:56 AM 64.9 °F 45.0 °F 48% 30.21 in 10.0 mi WNW 5.8 mph - N/A   Clear
12:56 PM 69.1 °F 44.1 °F 40% 30.19 in 10.0 mi Variable 3.5 mph - N/A   Clear
1:56 PM 73.0 °F 46.0 °F 38% 30.17 in 10.0 mi NNE 5.8 mph - N/A   Clear
2:56 PM 75.0 °F 45.0 °F 34% 30.15 in 10.0 mi North 5.8 mph - N/A   Clear
3:56 PM 77.0 °F 43.0 °F 30% 30.13 in 10.0 mi Calm Calm - N/A   Clear
4:56 PM 75.9 °F 39.0 °F 26% 30.11 in 10.0 mi NW 3.5 mph - N/A   Clear
5:56 PM 75.9 °F 43.0 °F 31% 30.09 in 10.0 mi NE 6.9 mph - N/A   Clear
6:56 PM 73.0 °F 43.0 °F 34% 30.08 in 10.0 mi NE 4.6 mph - N/A   Clear
7:56 PM 73.0 °F 39.9 °F 30% 30.07 in 10.0 mi Calm Calm - N/A   Clear
9:56 PM 63.0 °F 42.1 °F 46% 30.09 in 10.0 mi WNW 4.6 mph - N/A   Clear
10:56 PM 61.0 °F 41.0 °F 48% 30.09 in 10.0 mi Variable 3.5 mph - N/A   Clear
11:56 PM 55.0 °F 43.0 °F 64% 30.11 in 10.0 mi Calm Calm - N/A   Clear